Meridian, MS

4:17 AM CST on November 22, 2019 (GMT -0600)
Key

Weather History for KMEI - July, 2019

Change the Weather History Date:

Wednesday, July 31, 2019

  Actual Average Record
Temperature  
Mean Temperature 82 °F 81 °F  
Max Temperature 95 °F 92 °F 102 °F (1896)
Min Temperature 69 °F 70 °F 62 °F (1965)
Degree Days  
Heating Degree Days 0 0  
Month to date heating degree days 0 0  
Since 1 June heating degree days 0 0  
Since 1 July heating degree days 0 0  
Cooling Degree Days 17 16  
Month to date cooling degree days 550 484  
Year to date cooling degree days 1515 1147  
Since 1 June cooling degree days 1019 864  
Growing Degree Days 32 (Base 50)    
Moisture  
Dew Point 69 °F    
Average Humidity 71    
Maximum Humidity 100    
Minimum Humidity 41    
Precipitation  
Precipitation 0.00 in 0.16 in 3.51 in (2018)
Month to date precipitation 2.30 5.14  
Year to date precipitation 38.58 34.97  
Sea Level Pressure  
Sea Level Pressure 30.05 in    
Wind  
Wind Speed 3 mph (SSW)    
Max Wind Speed 10 mph    
Max Gust Speed 14 mph    
Visibility 7 miles    
Events Fog    
T = Trace of Precipitation, MM = Missing Value Source: NWS Daily Summary

Daily Weather History Graph

Daily Weather History Graph

Search for Another Location

Airport or City:

Astronomy

Jul. 31, 2019 Rise Set
Actual Time 6:08 AM CDT 7:53 PM CDT
Civil Twilight 5:42 AM CDT 8:20 PM CDT
Nautical Twilight 5:09 AM CDT 8:52 PM CDT
Astronomical Twilight 4:35 AM CDT 9:26 PM CDT
Moon 5:25 AM CDT (7/31) 7:50 PM CDT (7/31)
Length of Visible Light 14h 38m
Length of Day
13h 44m
Waning Crescent, 0% of the Moon is Illuminated
Jul 31
Waning Crescent
Jul 31
New
Aug 7
First Quarter
Aug 15
Full
Aug 23
Last Quarter

Hourly Weather History & Observations

Time (CDT) Temp. Heat Index Dew Point Humidity Pressure Visibility Wind Dir Wind Speed Gust Speed Precip Events Conditions
12:58 AM 72.0 °F - 69.1 °F 91% 30.04 in 10.0 mi SSW 3.5 mph - N/A   Clear
1:58 AM 72.0 °F - 68.0 °F 87% 30.03 in 10.0 mi Calm Calm - N/A   Clear
2:58 AM 70.0 °F - 68.0 °F 93% 30.02 in 10.0 mi Calm Calm - N/A   Clear
3:58 AM 70.0 °F - 66.9 °F 90% 30.02 in 10.0 mi Calm Calm - N/A   Overcast
4:58 AM 70.0 °F - 66.9 °F 90% 30.04 in 10.0 mi SSW 3.5 mph - N/A   Mostly Cloudy
5:58 AM 70.0 °F - 66.9 °F 90% 30.04 in 10.0 mi SSW 3.5 mph - N/A   Partly Cloudy
6:09 AM 70.0 °F - 66.9 °F 90% 30.06 in 6.0 mi South 3.5 mph - N/A   Mostly Cloudy
6:14 AM 69.1 °F - 66.9 °F 93% 30.06 in 1.2 mi South 4.6 mph - N/A   Mostly Cloudy
6:22 AM 69.1 °F - 66.9 °F 93% 30.06 in 0.5 mi South 3.5 mph - N/A Fog Fog
6:35 AM 70.0 °F - 68.0 °F 93% 30.06 in 2.0 mi SSW 3.5 mph - N/A   Overcast
6:42 AM 70.0 °F - 68.0 °F 93% 30.07 in 0.8 mi SSW 3.5 mph - N/A   Overcast
6:48 AM 70.0 °F - 68.0 °F 93% 30.07 in 0.2 mi SSW 4.6 mph - N/A Fog Fog
6:58 AM 70.0 °F - 69.1 °F 97% 30.06 in 0.2 mi South 4.6 mph - N/A Fog Fog
7:08 AM 70.0 °F - 69.1 °F 97% 30.07 in 0.2 mi South 4.6 mph - N/A Fog Fog
7:37 AM 71.1 °F - 69.1 °F 93% 30.08 in 0.8 mi Calm Calm - N/A   Mist
7:40 AM 71.1 °F - 69.1 °F 93% 30.08 in 1.0 mi Calm Calm - N/A   Overcast
7:53 AM 71.6 °F - 69.8 °F 94% 30.08 in 0.8 mi Calm Calm - N/A   Overcast
7:58 AM 72.0 °F - 70.0 °F 93% 30.07 in 0.8 mi Calm Calm - N/A   Overcast
8:22 AM 72.0 °F - 70.0 °F 93% 30.09 in 1.8 mi Calm Calm - N/A   Overcast
8:26 AM 73.0 °F - 70.0 °F 90% 30.09 in 3.0 mi Calm Calm - N/A   Overcast
8:37 AM 73.0 °F - 71.1 °F 93% 30.09 in 9.0 mi Calm Calm - N/A   Mostly Cloudy
8:44 AM 73.9 °F - 71.1 °F 91% 30.10 in 10.0 mi Calm Calm - N/A   Scattered Clouds
8:58 AM 75.0 °F - 72.0 °F 90% 30.09 in 10.0 mi Calm Calm - N/A   Partly Cloudy
9:58 AM 84.9 °F 90.7 °F 72.0 °F 65% 30.09 in 10.0 mi Calm Calm - N/A   Clear
10:58 AM 88.0 °F 92.1 °F 69.1 °F 53% 30.09 in 10.0 mi Variable 4.6 mph - N/A   Clear
11:58 AM 90.0 °F 92.8 °F 66.9 °F 46% 30.07 in 10.0 mi SSW 5.8 mph - N/A   Clear
12:58 PM 91.9 °F 97.4 °F 70.0 °F 48% 30.06 in 10.0 mi SSW 8.1 mph - N/A   Clear
1:58 PM 93.0 °F 95.9 °F 66.0 °F 41% 30.04 in 10.0 mi SSE 9.2 mph - N/A   Scattered Clouds
2:58 PM 93.0 °F 95.9 °F 66.0 °F 41% 30.02 in 10.0 mi Variable 3.5 mph - N/A   Scattered Clouds
3:58 PM 93.9 °F 97.5 °F 66.9 °F 41% 30.00 in 10.0 mi SSE 5.8 mph - N/A   Partly Cloudy
4:58 PM 93.9 °F 99.1 °F 69.1 °F 44% 29.99 in 10.0 mi SW 6.9 mph - N/A   Mostly Cloudy
5:58 PM 89.1 °F 96.0 °F 72.0 °F 57% 30.00 in 10.0 mi WSW 3.5 mph - N/A   Mostly Cloudy
6:58 PM 87.1 °F 94.5 °F 73.0 °F 63% 30.00 in 10.0 mi Calm Calm - N/A   Scattered Clouds
7:58 PM 84.0 °F 91.2 °F 73.9 °F 72% 30.00 in 10.0 mi SSW 3.5 mph - N/A   Partly Cloudy
8:58 PM 81.0 °F 85.8 °F 73.0 °F 77% 30.02 in 10.0 mi North 6.9 mph - N/A   Clear
9:58 PM 80.1 °F 83.8 °F 72.0 °F 76% 30.03 in 10.0 mi Calm Calm - N/A   Partly Cloudy
10:58 PM 77.0 °F - 71.1 °F 82% 30.03 in 10.0 mi NW 5.8 mph - N/A   Clear
11:58 PM 75.9 °F - 71.1 °F 85% 30.03 in 10.0 mi Calm Calm - N/A   Clear